Retour au catalogue

DELTA 1 DEB

ActifSSO
NORAD 7059·DEBRIS·🇺🇸 United States

Lancé Nov 6, 1973 depuis Vandenberg Space Force Base

Loading…

Prochains Passages (prochaines 24 heures)

TLE

FraisSource: Space-Track

Époque: Sep 14, 2026, 05:19 UTC

1 07059U 73086BB  26257.22180770  .00000456  00000-0  42415-2 0  9997
2 07059 102.0176   7.8970 0108363 145.2089 329.9228 12.28532398360334

Suivez DELTA 1 DEB en temps réel avec AllMySat

Download on the App Store